Location: Gleizolles
(44.4833°N, 6.7667°E)
Time: 22:27:07
(UTC+00:00)

A-11 Canister half - Pass Details

Date: 04 July 2024
Orbit: 1524 x 1684 km, 47.3° (Epoch: 18 July)

Event Time Altitude Azimuth Distance (km) Brightness Sun altitude
Rises 15:31:58 0° 294° (WNW) 4,707 12.3 37.9°
Reaches altitude 10° 15:35:12 10° 288° (WNW) 3,709 12.1 37.3°
Maximum altitude 15:43:50 45° 220° (SW) 1,984 10.7 35.8°
Drops below altitude 10° 15:52:27 10° 152° (SSE) 3,690 10.9 34.2°
Sets 15:55:40 0° 146° (SE) 4,681 11.3 33.7°
